This is the latest recevied weather packets stored in our database for station/object OH6GKW. If no packets are shown the sender has not sent any weather packets the latest 10 day(s).
| Time | Temp. | Humidity | Pressure | Rain* | Wind** | Luminosity | Snow |
|---|---|---|---|---|---|---|---|
| 1778154217 | 6.67° C | 74% | 1013.1 hPa | 0 mm | - | 202 W/m² | - |
| 1778153913 | 6.67° C | 76% | 1013.1 hPa | 0 mm | - | 317 W/m² | - |
| 1778153611 | 6.11° C | 77% | 1013.1 hPa | 0 mm | - | 296 W/m² | - |
| 1778153337 | 6.11° C | 76% | 1013.2 hPa | 0 mm | - | 269 W/m² | - |
| 1778153030 | 6.11° C | 76% | 1013.2 hPa | 0 mm | - | 283 W/m² | - |
| 1778152726 | 6.11° C | 76% | 1013.2 hPa | 0 mm | - | 283 W/m² | - |
| 1778152419 | 6.11° C | 76% | 1013.1 hPa | 0 mm | - | 234 W/m² | - |
| 1778152115 | 6.67° C | 75% | 1013.1 hPa | 0 mm | - | 208 W/m² | - |
| 1778151830 | 7.22° C | 73% | 1013.1 hPa | 0 mm | - | 185 W/m² | - |
| 1778151521 | 7.78° C | 71% | 1013.2 hPa | 0 mm | - | 211 W/m² | - |
| 1778151214 | 7.78° C | 67% | 1013.2 hPa | 0 mm | - | 248 W/m² | - |
| 1778150923 | 8.33° C | 55% | 1013.2 hPa | 0 mm | - | 290 W/m² | - |
| 1778150616 | 8.33° C | 50% | 1013.2 hPa | 0 mm | - | 334 W/m² | - |
| 1778150312 | 8.33° C | 52% | 1013.2 hPa | 0 mm | - | 246 W/m² | - |
| 1778150018 | 8.33° C | 52% | 1013.2 hPa | 0 mm | - | 195 W/m² | - |
| 1778149709 | 8.33° C | 52% | 1013.3 hPa | 0 mm | - | 262 W/m² | - |
| 1778149421 | 7.78° C | 52% | 1013.3 hPa | 0 mm | - | 377 W/m² | - |
| 1778149114 | 7.78° C | 54% | 1013.3 hPa | 0 mm | - | 209 W/m² | - |
| 1778148827 | 7.78° C | 53% | 1013.4 hPa | 0 mm | - | 174 W/m² | - |
| 1778148519 | 7.78° C | 54% | 1013.4 hPa | 0 mm | - | 394 W/m² | - |
| 1778148216 | 8.33° C | 55% | 1013.4 hPa | 0 mm | - | 234 W/m² | - |
| 1778147933 | 7.78° C | 57% | 1013.6 hPa | 0 mm | - | 850 W/m² | - |
| 1778147629 | 7.78° C | 59% | 1013.6 hPa | 0 mm | - | 850 W/m² | - |
| 1778147324 | 7.22° C | 60% | 1013.6 hPa | 0 mm | - | 406 W/m² | - |
| 1778147017 | 7.22° C | 62% | 1013.7 hPa | 0 mm | - | 378 W/m² | - |
* Rain since midnight (hover to see other rain measurements)
** Current wind speed in m/s (hover to see current wind gust speed)